1413298826376,0.000176414
1413298890772,0.000178731
1413298950772,0.000176729
1413299010772,0.000177078
1413299070772,0.000176651
1413299130772,0.000181216
1413299190772,0.000178920
1413299250772,0.000178217
1413299310772,0.000178670
1413299370772,0.000177225
1413299430772,0.000178733
1413299490772,0.000177272
1413299550772,0.000177038
1413299610772,0.000178698
1413299670772,0.000179531
1413299730772,0.000178456
1413299790772,0.000178648
1413299850772,0.000177278
1413299910772,0.000178887
1413299970772,0.000178932
1413300030772,0.000179730
1413300090772,0.000178704
1413300150772,0.000179697
1413300210772,0.000179932
1413300270772,0.000180166
1413300330772,0.000178919
1413300390772,0.000178288
1413300450772,0.000177251
1413300510772,0.000177531
1413300570772,0.000180484
1413300630772,0.000180386
1413300690772,0.000179857
1413300750772,0.000177781
1413300810772,0.000179310
1413300870772,0.000179380
1413300930772,0.000179878
1413300990772,0.000178457
1413301050772,0.000178353
1413301110772,0.000179903
1413301170772,0.000178600
1413301230772,0.000179139
1413301290772,0.000179461
1413301350772,0.000185851
1413301410772,0.000179867
1413301470772,0.000178903
1413301530772,0.000178194
1413301590772,0.000177187
1413301650772,0.000179280
1413301710772,0.000179868
1413301770772,0.000178447
1413301830772,0.000178711
1413301890772,0.000180403
1413301950772,0.000179110
1413302010772,0.000178150
1413302070772,0.000179130
1413302130772,0.000178238
1413302190772,0.000178019
1413302250772,0.000179433
1413302310772,0.000180178
1413302370772,0.000178305
1413302430774,0.000179026
1413302490774,0.000179442
1413302550774,0.000179201
1413302610774,0.000177896
1413302670774,0.000178369
1413302730774,0.000179168
1413302790774,0.000178996
1413302850774,0.000178162
1413302910774,0.000180032
1413302970774,0.000179163
1413303030774,0.000179103
1413303090774,0.000179960
1413303150774,0.000179994
1413303210774,0.000179938
1413303270774,0.000180817
1413303330774,0.000181470
1413303390774,0.000179472
1413303450774,0.000179286
1413303510774,0.000179468
1413303570774,0.000180164
1413303630774,0.000178440
1413303690774,0.000180757
1413303750774,0.000179932
1413303810774,0.000180035
1413303870774,0.000179451
1413303930774,0.000179493
1413303990774,0.000181368
1413304050774,0.000180572
1413304110774,0.000181757
1413304170774,0.000183389
1413304230774,0.000180989
1413304290774,0.000180845
1413304350774,0.000180625
1413304410774,0.000179783
1413304470774,0.000181764
1413304530774,0.000181414
1413304590774,0.000180135
1413304650774,0.000180812
1413304710774,0.000180239
1413304770774,0.000181049
1413304830774,0.000179164
1413304890774,0.000179285
1413304950774,0.000179917
1413305010774,0.000180203
1413305070774,0.000178828
1413305130774,0.000179603
1413305190774,0.000178512
1413305250774,0.000180070
1413305310774,0.000180587
1413305370774,0.000178914
1413305430774,0.000180153
1413305490774,0.000180394
1413305550774,0.000179589
1413305610774,0.000180589
1413305670774,0.000178758
1413305730774,0.000178941
1413305790774,0.000177944
1413305850774,0.000177318
1413305910774,0.000180168
1413305970774,0.000179537
1413306030776,0.000179612
1413306090776,0.000177306
1413306150776,0.000180079
1413306210776,0.000179600
1413306270776,0.000177877
1413306330776,0.000177600
1413306390776,0.000179996
1413306450776,0.000180822
1413306510776,0.000177151
1413306570776,0.000180060
1413306630776,0.000177911
1413306690776,0.000178275
1413306750776,0.000178513
1413306810776,0.000179452
1413306870776,0.000180160
1413306930776,0.000179123
1413306990776,0.000177629
1413307050776,0.000177175
1413307110776,0.000178394
1413307170776,0.000176372
1413307230776,0.000175302
1413307290776,0.000176366
1413307350776,0.000178214
1413307410776,0.000178538
1413307470776,0.000176249
1413307530776,0.000177149
1413307590776,0.000175890
1413307650776,0.000176444
1413307710776,0.000176974
1413307770776,0.000175199
1413307830776,0.000177856
1413307890776,0.000177242
1413307950776,0.000178024
1413308010776,0.000176834
1413308070776,0.000177248
1413308130776,0.000178503
1413308190776,0.000175996
1413308250776,0.000176807
1413308310776,0.000175598
1413308370776,0.000175993
1413308430776,0.000174063
1413308490776,0.000177041
1413308550776,0.000175072
1413308610776,0.000176902
1413308670776,0.000175360
1413308730776,0.000174614
1413308790776,0.000175533
1413308850776,0.000175061
1413308910776,0.000174882
1413308970776,0.000175042
1413309030776,0.000177340
1413309090776,0.000174543
1413309150776,0.000176664
1413309210776,0.000175488
1413309270776,0.000174885
1413309330776,0.000175330
1413309390776,0.000177098
1413309450776,0.000174810
1413309510776,0.000173447
1413309570776,0.000174745
1413309630778,0.000174745
1413309690778,0.000175001
1413309750778,0.000172769
1413309810778,0.000174023
1413309870778,0.000175139
